GFSFLT2_sfc_30mbdewp_105.txt.gz
Dewpoint
54 54 53 54 53 54 55 56 56 56 57 57 58 58 58 58 57 55 54 52 51 50 50 49 48 48 47
54 51 51 51 51 51 51 52 53 54 55 56 58 57 56 56 54 53 52 51 50 49 48 48 47 46 45
51 51 49 47 47 48 48 49 50 52 55 55 55 54 54 53 52 51 50 49 48 47 46 45 44 43 43
47 48 47 45 46 45 45 45 47 49 53 53 53 53 52 51 50 49 48 47 46 44 42 39 37 38 39
44 45 44 44 44 45 45 45 45 46 49 50 50 50 51 50 49 47 47 45 44 41 38 37 37 37 37
40 41 44 44 45 45 45 42 41 43 45 46 49 47 48 48 47 46 45 44 41 39 37 37 37 36 36
40 39 41 43 46 45 44 42 44 43 45 45 45 46 47 47 47 46 44 42 40 38 37 37 36 35 36
36 38 40 41 42 43 45 44 43 42 44 42 42 43 45 46 47 46 44 42 40 39 38 37 36 35 40
34 36 37 39 42 42 41 42 40 38 41 39 38 39 41 41 46 45 44 42 40 39 38 37 35 37 39
29 31 33 36 39 41 41 40 41 37 37 39 36 36 36 35 40 44 43 42 41 39 38 36 36 37 37
27 29 30 33 36 40 41 42 40 40 38 39 35 35 35 30 33 39 41 41 40 38 37 36 38 36 36
27 28 29 29 32 36 39 40 41 41 39 40 35 37 34 30 30 32 37 38 38 36 36 37 37 36 36
24 25 27 32 34 34 36 36 36 37 39 40 37 37 37 33 30 31 32 34 36 36 36 34 34 35 33
24 26 31 32 32 33 33 33 33 33 33 35 36 37 35 33 32 31 33 31 35 35 34 34 34 34 33
25 26 27 28 31 33 32 33 32 32 31 31 33 34 34 33 32 32 32 32 34 34 33 32 32 32 32
25 24 26 26 29 31 32 31 31 31 30 28 30 31 31 31 33 31 32 32 33 34 32 31 30 30 30
24 26 25 26 29 29 29 31 31 31 30 28 30 31 30 27 28 33 31 31 32 32 31 30 29 30 28

GFSFLT2_sfc_30mbdewp_111.txt.gz
Dewpoint
49 50 54 55 56 57 57 57 57 57 57 58 57 57 57 57 57 58 59 59 61 61 59 57 55 53 52
45 47 48 49 50 52 55 55 56 56 57 57 56 56 56 56 56 56 57 58 60 60 58 56 54 53 52
42 45 47 47 47 48 48 49 50 51 52 52 53 54 54 54 55 55 56 57 59 57 57 56 55 54 52
38 39 41 44 45 45 45 47 47 48 49 50 50 51 53 54 54 54 55 56 57 56 55 54 54 53 51
34 35 37 38 40 43 43 44 45 46 46 47 49 51 52 53 54 54 54 55 55 54 53 53 51 50 50
33 32 33 37 37 37 37 39 39 44 44 44 48 48 50 52 52 52 53 52 52 52 52 51 49 48 47
30 30 34 34 36 35 35 36 36 39 41 40 45 45 48 50 51 51 51 51 51 51 50 48 47 45 44
29 31 31 31 32 34 34 36 36 37 41 38 42 43 45 47 49 50 50 50 49 49 48 46 44 43 42
28 29 30 29 28 29 30 30 28 30 36 39 39 41 42 43 46 48 49 49 48 48 46 45 43 42 41
28 28 28 27 29 31 31 30 28 28 33 36 37 38 38 39 41 45 48 48 47 47 46 44 43 41 38
28 27 26 25 27 29 27 28 30 30 32 35 35 36 37 38 36 39 45 46 46 45 45 44 42 39 37
29 27 24 23 23 24 27 28 28 28 31 32 32 34 35 35 36 36 39 44 44 43 43 43 42 41 38
25 25 24 23 24 26 30 29 28 28 28 31 32 33 35 34 35 35 37 38 42 41 41 41 41 40 39
28 28 26 24 25 27 24 26 26 27 30 31 33 34 33 35 37 34 37 37 38 39 39 39 40 39 38
27 26 26 24 25 24 25 25 24 27 28 32 33 33 34 34 33 35 35 36 37 38 37 36 37 37 37
25 25 24 23 23 24 24 24 25 25 28 30 32 31 31 32 35 35 34 35 35 36 37 35 34 35 36
26 26 25 23 23 22 22 22 23 25 27 30 30 29 27 27 32 36 33 35 34 34 35 35 34 34 35

GFSFLT2_sfc_30mbdewp_117.txt.gz
Dewpoint
34 35 37 39 42 43 47 48 48 49 51 55 57 58 58 58 58 58 58 58 59 60 61 61 61 61 60
31 32 34 37 37 40 44 46 43 45 49 51 52 55 57 57 57 57 58 58 59 59 59 59 60 61 60
29 30 34 34 35 37 36 38 38 40 47 49 50 50 51 54 56 57 57 57 57 57 58 58 59 59 61
28 28 31 32 35 34 33 35 35 38 42 42 43 45 48 50 51 51 53 54 55 56 56 56 57 58 59
27 27 28 29 30 32 30 31 32 41 33 33 35 39 45 46 48 49 50 51 52 53 54 54 55 56 58
27 26 26 29 30 30 29 27 25 33 30 29 32 36 37 41 46 47 48 49 50 51 52 53 53 54 55
27 27 27 28 29 29 28 27 26 28 31 28 31 35 39 42 44 44 46 47 49 50 50 51 52 53 54
28 28 29 29 30 30 29 28 29 29 30 27 28 29 33 38 39 43 44 45 47 49 50 51 51 52 53
27 28 29 29 30 30 27 25 24 24 26 29 31 30 33 36 39 41 42 44 46 48 49 50 51 52 51
26 27 29 29 29 29 26 24 24 22 29 27 26 28 26 31 32 36 37 39 43 46 48 49 50 51 49
25 25 26 28 28 27 26 24 21 22 25 26 26 25 25 25 28 29 34 34 37 43 47 48 48 47 45
24 24 25 25 26 26 26 24 24 25 27 28 25 23 23 23 23 25 27 31 36 40 43 46 47 46 45
24 23 24 25 26 26 26 26 25 27 26 25 25 25 25 24 23 25 26 28 30 34 38 42 43 43 41
23 24 25 24 25 26 25 24 24 23 24 25 24 25 26 28 27 25 27 27 30 32 38 40 42 42 41
24 23 22 22 23 24 24 24 22 21 21 21 23 24 26 29 28 29 28 27 29 31 36 37 38 40 40
22 20 20 20 21 22 23 22 21 21 21 21 21 22 24 27 32 28 29 30 30 30 33 34 36 38 40
19 20 19 20 22 22 22 22 21 21 20 21 22 22 21 20 24 32 29 29 28 30 32 33 35 36 38

GFSFLT2_sfc_30mbdewp_123.txt.gz
Dewpoint
30 31 30 30 29 30 33 31 33 32 32 36 40 38 41 42 44 45 46 50 57 59 60 61 61 61 62
29 30 30 29 29 29 29 29 30 30 30 38 32 33 33 38 41 42 44 46 49 53 58 59 60 60 61
27 29 29 29 28 28 28 28 29 28 30 30 28 30 33 33 37 40 42 44 45 48 52 58 60 60 59
26 26 26 26 26 26 26 27 29 27 29 28 28 28 31 34 35 36 39 39 43 46 47 50 57 58 59
24 24 23 23 24 25 27 27 28 27 28 28 28 29 30 34 35 36 37 40 41 43 45 47 49 57 58
24 22 22 24 25 26 26 24 23 26 27 27 27 27 30 33 31 32 40 40 42 43 45 46 47 49 53
24 23 24 24 26 26 25 24 23 25 26 24 24 26 29 26 25 29 36 35 34 37 40 43 45 48 49
26 26 27 27 26 25 23 24 24 24 24 23 23 25 25 26 26 32 29 30 31 32 33 37 40 44 47
27 27 27 26 26 24 21 22 21 21 22 24 23 23 24 24 25 26 24 25 29 30 30 33 41 43 46
25 25 26 24 24 24 24 21 20 19 19 23 23 23 20 21 23 24 24 23 26 27 30 34 35 39 42
23 22 22 22 23 24 24 24 22 21 23 25 25 24 22 21 19 21 23 24 24 28 29 30 36 39 41
17 18 20 22 23 24 25 25 26 26 26 27 25 24 23 21 20 20 22 24 27 27 29 31 29 33 38
18 19 20 22 24 24 24 24 25 26 26 27 27 26 24 22 21 22 21 22 25 29 28 29 30 32 35
19 19 20 20 20 21 20 20 20 21 23 24 25 25 23 23 22 22 23 22 23 25 28 29 31 33 35
20 20 19 19 19 19 19 19 20 19 21 22 23 23 24 24 22 22 22 24 25 27 28 28 30 31 34
20 20 19 19 19 19 19 19 20 18 19 21 21 21 21 21 23 22 23 25 26 27 29 28 28 30 34
21 20 20 20 19 18 18 18 18 17 19 21 20 19 18 17 18 19 22 23 23 24 28 28 28 30 32

GFSFLT2_sfc_30mbdewp_126.txt.gz
Dewpoint
25 27 28 28 29 28 27 27 27 28 30 31 33 31 31 32 34 35 38 42 45 45 47 49 53 58 60
26 26 27 28 28 28 26 26 27 27 30 29 31 30 30 30 32 35 36 37 40 42 45 46 48 51 58
25 26 26 27 26 26 25 25 26 26 27 28 29 29 29 29 31 35 36 37 37 41 43 44 45 47 50
25 24 24 24 23 23 23 24 25 26 27 27 27 26 27 28 32 33 31 39 39 40 43 44 45 46 48
23 23 23 21 22 23 23 25 25 26 25 24 24 24 24 27 30 26 27 34 38 37 38 41 42 43 45
23 21 21 21 21 22 24 26 23 23 22 22 23 23 24 26 25 25 27 34 33 33 33 35 39 41 43
23 22 22 22 24 26 26 25 22 22 22 22 22 21 23 23 24 25 28 29 26 27 30 32 33 38 42
24 25 25 26 28 27 26 23 22 21 20 21 20 21 22 23 23 25 27 25 25 25 28 29 31 35 40
26 25 25 26 25 26 24 22 20 19 19 20 21 21 23 24 22 23 24 23 23 25 25 27 31 33 37
22 21 21 22 23 23 22 21 21 21 18 19 21 22 20 20 21 23 22 22 22 23 25 28 30 35 35
20 19 17 18 19 21 22 23 23 22 22 23 23 23 23 23 22 23 23 23 24 25 24 26 31 30 32
16 16 17 19 20 22 23 24 24 23 24 25 24 24 23 22 22 21 23 24 25 26 27 29 27 30 31
17 18 20 22 22 23 24 23 24 23 22 24 26 25 25 23 22 22 21 23 25 26 26 27 29 30 31
20 20 21 22 22 22 22 22 21 20 21 22 25 25 23 24 24 23 23 22 24 26 27 28 28 30 32
20 20 20 20 20 21 21 21 20 20 20 21 23 24 25 23 23 22 22 22 24 25 27 27 28 30 31
21 21 21 21 21 21 21 20 20 19 19 19 20 21 21 22 25 24 23 22 23 24 24 23 25 28 30
22 22 21 21 20 20 19 19 19 19 20 19 20 20 17 16 19 20 22 22 22 22 24 25 25 27 30

GFSFLT2_sfc_30mbdewp_132.txt.gz
Dewpoint
28 28 29 29 29 29 29 28 27 27 28 30 30 31 32 32 32 32 32 34 34 33 35 37 40 41 44
27 29 29 29 28 28 28 26 27 26 28 29 28 31 30 30 29 30 30 33 32 31 32 33 37 38 37
26 28 27 27 28 28 27 26 25 27 26 25 28 28 29 26 28 28 28 31 31 30 31 33 32 33 35
25 27 27 28 27 26 24 25 26 25 25 27 27 26 25 25 26 26 26 28 29 30 31 32 30 30 30
25 26 26 25 24 25 25 26 25 24 26 26 24 24 25 25 25 26 25 27 28 28 30 30 29 29 30
26 25 24 24 24 25 24 23 22 26 26 25 24 24 25 24 24 24 26 27 25 27 29 28 28 28 29
27 28 27 26 26 24 25 26 26 27 27 25 24 23 23 22 23 26 24 23 27 27 27 26 26 27 27
25 25 26 27 28 28 29 29 29 28 25 22 22 22 22 23 25 24 23 25 26 26 24 25 25 25 26
26 27 28 27 26 25 24 23 22 21 23 22 22 23 22 22 22 22 23 24 23 23 24 24 24 25 27
28 28 28 24 24 23 21 19 21 21 23 22 22 24 19 20 21 22 21 22 22 23 23 22 24 24 26
30 26 23 22 20 20 23 22 21 21 23 24 22 21 21 20 19 19 20 21 23 22 24 24 24 25 24
24 23 21 19 20 23 24 24 25 23 23 22 21 21 21 20 18 18 20 22 23 24 23 25 25 25 24
20 20 20 22 23 23 23 24 24 24 24 25 24 24 24 20 19 19 19 21 22 22 24 23 25 25 25
20 21 22 23 23 24 24 24 23 22 23 24 24 23 21 21 22 21 21 19 20 21 22 23 25 25 24
21 22 23 22 23 24 24 24 22 20 20 21 21 22 23 22 20 20 18 18 20 21 23 23 24 24 23
22 23 23 23 22 23 23 23 21 20 19 20 20 19 19 20 22 19 19 20 21 22 24 23 21 21 22
23 23 23 23 22 21 21 21 21 20 20 20 19 19 16 14 15 16 17 18 20 21 20 19 20 21 22

GFSFLT2_sfc_30mbdewp_138.txt.gz
Dewpoint
28 28 28 28 28 28 29 29 29 30 27 30 30 29 31 33 32 31 30 32 32 32 34 34 34 35 35
26 27 28 28 27 28 27 28 28 27 29 29 28 28 31 31 30 28 29 30 29 30 32 32 32 33 34
26 28 27 27 27 28 27 26 26 27 26 25 27 29 29 28 28 28 28 27 28 29 30 31 31 31 32
24 25 25 26 28 26 24 26 26 26 25 27 28 28 27 27 27 27 26 27 27 29 30 30 28 28 30
25 25 25 25 25 25 25 25 26 26 25 26 27 28 28 27 26 26 27 26 27 29 30 28 29 30 30
26 25 25 26 26 26 26 25 24 26 26 26 28 27 27 26 26 25 25 26 27 27 27 28 30 30 29
26 26 26 27 26 25 25 25 26 27 28 26 26 25 25 24 25 25 25 26 26 26 27 28 27 26 26
25 25 26 26 26 26 28 30 30 29 29 24 21 21 23 24 24 24 25 25 25 26 24 24 24 25 25
27 29 30 29 29 32 29 26 23 23 23 21 22 22 21 21 23 24 23 24 21 22 23 24 24 25 25
27 28 28 28 29 30 28 23 22 19 22 21 21 22 20 21 20 21 20 21 21 22 23 22 22 24 24
28 27 29 30 29 27 25 24 21 19 22 23 23 22 21 20 20 20 21 20 21 21 21 21 22 23 23
30 30 29 28 26 25 23 23 23 22 23 24 21 20 20 19 18 19 20 20 21 20 21 22 23 23 22
26 26 27 27 24 23 23 24 24 24 24 25 23 22 22 21 19 19 20 20 20 20 21 22 23 22 21
27 26 25 23 22 23 22 23 23 23 24 25 24 24 22 21 21 20 20 19 19 20 21 21 21 21 21
25 24 22 23 23 24 24 23 22 20 20 21 22 23 23 22 20 20 19 19 20 20 20 20 20 20 21
24 22 22 22 22 22 22 22 20 20 20 20 20 19 19 20 22 20 20 20 20 21 21 20 19 19 20
22 20 22 23 22 22 21 21 20 19 19 19 19 19 16 14 15 18 18 19 19 19 19 19 18 19 20

GFSFLT2_sfc_30mbdewp_141.txt.gz
Dewpoint
28 28 27 27 27 27 28 28 28 30 29 29 31 31 30 31 33 32 32 31 32 33 33 34 34 34 34
25 26 27 28 27 26 27 27 26 28 28 29 29 29 29 32 30 30 30 30 30 30 31 32 33 33 33
24 27 27 27 26 26 27 26 26 27 27 27 27 29 30 30 29 29 29 29 28 29 30 31 32 33 32
25 25 25 25 26 26 25 26 26 26 27 27 28 28 28 29 28 27 27 27 28 29 29 31 31 30 30
24 25 25 25 25 25 25 26 26 26 25 25 26 27 28 29 27 26 27 28 28 28 30 30 29 29 30
25 26 26 25 26 25 26 25 24 26 25 25 27 27 28 28 27 27 27 27 27 28 28 28 28 29 29
27 27 26 26 26 26 25 25 25 26 27 27 27 26 27 25 24 25 26 26 27 27 27 28 28 27 27
28 28 27 27 26 25 26 26 29 30 29 25 24 23 22 23 25 24 25 26 27 26 25 25 25 26 26
28 28 28 28 30 32 30 29 27 25 25 24 22 22 22 21 22 24 24 25 25 23 24 25 25 25 25
26 28 29 30 30 29 29 28 27 23 22 21 21 21 19 22 21 20 19 20 21 23 24 24 24 24 24
27 27 27 27 28 28 30 30 26 24 23 22 21 22 22 21 21 21 21 21 21 21 22 22 23 23 23
28 28 28 30 30 29 28 26 25 24 22 23 21 21 19 19 19 19 20 20 21 21 21 22 23 23 24
29 29 29 30 29 27 26 24 24 24 25 25 23 22 21 20 19 19 20 20 21 21 21 21 21 21 21
29 28 28 28 27 25 22 22 22 22 24 24 24 24 22 21 20 20 20 20 20 21 21 21 21 22 22
29 27 26 24 24 23 23 23 23 21 20 21 22 23 23 22 20 19 19 20 20 20 21 20 21 21 21
27 26 25 24 23 23 23 23 21 20 20 20 19 19 20 20 22 20 20 20 20 20 21 20 20 20 21
27 25 24 22 22 23 23 22 20 19 19 19 18 17 15 14 16 18 20 19 19 19 20 20 20 20 20

GFSFLT2_sfc_30mbdewp_144.txt.gz
Dewpoint
27 28 27 26 27 27 27 27 28 29 29 31 30 32 32 32 32 33 32 32 32 33 33 34 34 34 34
24 25 26 27 28 27 25 27 27 27 28 28 30 30 30 31 31 31 31 31 31 31 31 32 33 33 34
24 26 26 27 26 26 26 26 26 28 28 28 28 29 30 31 30 31 30 30 30 30 30 30 31 32 32
24 24 25 25 25 25 25 26 26 27 27 28 29 29 29 29 29 29 28 28 29 29 30 30 31 32 31
23 24 24 24 24 25 25 26 26 26 26 25 24 25 26 29 29 28 26 27 29 29 29 30 31 30 30
24 23 23 25 26 25 26 25 23 26 25 24 26 26 27 28 29 28 27 29 29 28 29 29 29 29 30
25 25 26 27 26 26 26 25 24 25 26 26 28 27 28 27 28 25 26 27 27 28 28 28 28 28 27
31 30 29 29 28 27 25 25 26 27 28 26 26 25 25 25 25 25 25 26 27 28 27 27 26 27 27
30 30 30 29 29 26 26 27 27 27 30 28 24 22 22 22 23 24 25 25 26 24 25 25 26 26 27
30 30 30 30 30 31 32 28 26 25 26 25 22 21 19 22 21 20 19 22 22 23 24 25 25 26 25
28 27 26 27 28 29 30 30 28 27 25 22 21 22 21 21 22 21 21 21 21 21 22 22 23 24 24
27 27 27 27 28 31 32 31 31 29 28 27 22 22 21 21 20 20 20 20 21 21 21 22 23 24 25
28 28 28 29 31 31 31 29 27 26 26 24 22 22 22 21 20 20 20 20 21 21 22 22 22 22 21
28 29 29 30 29 29 27 25 24 22 24 25 24 24 22 22 21 20 20 19 21 21 21 22 22 22 22
29 28 28 28 27 27 26 24 22 21 22 22 23 24 24 22 20 20 19 19 20 21 21 21 21 21 22
29 29 27 26 26 25 24 23 22 22 21 20 19 19 20 20 22 20 19 19 20 21 21 20 20 21 21
28 27 26 25 26 23 22 22 22 21 20 19 18 17 15 13 15 18 20 20 20 20 21 20 20 20 20